Regional Weather Roundup
Issued by NWS

Home | Current Version | Previous Version | Graphics & Text | Print | Product List | Glossary On
Versions: 1 2 3 4 5 6 7 8 9 10 11 12 13 14 15 16 17 18 19 20 21 22 23 24 25 26 27
000
ASUS45 KSLC 240610
RWRUT

UTAH REGIONAL WEATHER ROUNDUP
NATIONAL WEATHER SERVICE SALT LAKE CITY UT
1200 AM MDT TUE APR 24 2018

UTZ001>011-023>025-240700-

NORTHERN UTAH

CITY           SKY/WX    TMP DP  RH WIND       PRES   REMARKS
BRIGHAM CITY   CLEAR     49  30  48 W3        30.23S
HILL AFB       NOT AVBL
LOGAN          CLEAR     42  34  73 N10       30.25S
OGDEN          CLEAR     50  27  40 N8        30.20S
SALT LAKE CITY CLEAR     52  36  54 CALM      30.19R
TOOELE VALLEY  CLEAR     37  30  75 S6        30.22R WCI  33
WENDOVER       CLEAR     53  19  26 NE16      30.23R
HEBER CITY       N/A     37  16  41 E5        30.21S WCI  34
WEST JORDAN    CLEAR     49  32  51 W9        30.21R

$$

UTZ011>015-024>027-240700-

CENTRAL/NORTHEAST UTAH

CITY           SKY/WX    TMP DP  RH WIND       PRES   REMARKS
PROVO AIRPORT  CLEAR     50  29  44 N8        30.19R
MOAB/CANYONLAN CLOUDY    63  23  21 NW3       30.05R
DELTA          CLEAR     50  19  29 N12       30.17R
PRICE          PTCLDY    50  20  30 W7        30.16R
ROOSEVELT      MOCLDY    54  12  19 N6        30.20R
VERNAL         CLOUDY    53  20  27 NE13      30.19R

$$

UTZ013>016-019>022-027-240700-

SOUTHERN UTAH

CITY           SKY/WX    TMP DP  RH WIND       PRES   REMARKS
BRYCE CANYON   CLEAR     37  26  64 NW3       30.23S
CEDAR CITY     CLEAR     51  36  56 CALM      30.14R
MILFORD        PTCLDY    54  28  36 MISG      30.14R
ST GEORGE      CLEAR     71  27  19 E3        29.96R
HANKSVILLE     CLOUDY    66  27  22 W3        30.07S
BLANDING         N/A     56  18  22 N5        30.16R

$$

REGIONAL REPORTS     COLORADO/ARIZONA

CITY           SKY/WX    TMP DP  RH WIND       PRES   REMARKS
CRAIG, CO      CLOUDY    41  33  73 SW13      30.23R
GRAND JUNCTION MOCLDY    63  30  28 E3        30.08R
RIFLE, CO      CLOUDY    57  33  40 S17       30.12F
MONTROSE, CO   CLOUDY    60  29  30 N14G24    30.18R
CORTEZ, CO     PTCLDY    51  15  23 NE6       30.10R
COLORADO CITY    N/A     46  27  46 CALM      30.11S
PAGE, AZ       CLEAR     72  20  14 W3        30.02R
GRAND CANYON   PTCLDY    39  14  36 CALM      30.21R
KINGMAN, AZ    PTCLDY    68  21  16 S9        30.02S
FLAGSTAFF, AZ  CLEAR     44  16  32 CALM      30.24R

$$

REGIONAL REPORTS    NEVADA/IDAHO/WYOMING

CITY           SKY/WX    TMP DP  RH WIND       PRES   REMARKS
LAS VEGAS, NV  MOCLDY    81  23  11 SW7       29.90R
ELY, NY        CLEAR     48  15  26 N16       30.21R
ELKO, NV       CLEAR     47  20  34 NE13      30.24R
POCATELLO, ID  CLEAR     36  34  92 NE7       30.32R WCI  30
BURLEY, ID     CLEAR     41  33  73 VRB7      30.28S
FORT BRIDGER,  CLEAR     36  21  55 S5        30.30S WCI  32
EVANSTON, WY   CLEAR     35  25  66 N12       30.28R WCI  27
ROCK SPRINGS,  MOCLDY    31  24  75 NE17      30.33R WCI  19
KEMMERER, WY   CLEAR     32  23  69 NW12      30.27F WCI  23

$$




USA.gov is the U.S. government's official web portal to all federal, state and local government web resources and services.